Weather History for Nice, France

Change the Weather History Date:

Saturday, June 8, 2013

  Actual Average Record
Temperature  
Mean Temperature 66 °F -  
Max Temperature 71 °F 76 °F 82 °F (1999)
Min Temperature 62 °F 64 °F 57 °F (2002)
Cooling Degree Days 2    
Growing Degree Days 16 (Base 50)    
Moisture  
Dew Point 59 °F    
Average Humidity 76    
Maximum Humidity 83    
Minimum Humidity 63    
Precipitation  
Precipitation 0.00 in 0.04 in - ()
Sea Level Pressure  
Sea Level Pressure 29.99 in    
Wind  
Wind Speed 4 mph ()    
Max Wind Speed 9 mph    
Max Gust Speed -    
Visibility 6.7 miles    
Events      
Averages and records for this station are not official NWS values.
T = Trace of Precipitation, MM = Missing Value Source: Averaged Metar Reports

Daily Weather History Graph

Daily Weather History Graph

Search for Another Location

Airport:

Trip Planner

Search our weather history database for the weather conditions in past years. The results will help you decide how hot, cold, wet, or windy it might be!

Date:

Astronomy

Jun. 08, 2013 Rise Set
Actual Time 5:49 AM CEST 9:10 PM CEST
Civil Twilight 5:14 AM CEST 9:46 PM CEST
Nautical Twilight 4:28 AM CEST 10:32 PM CEST
Astronomical Twilight 3:30 AM CEST 11:30 PM CEST
Moon 5:47 AM CEST (6/8) 8:58 PM CEST (6/8)
Length of Visible Light 16h 32m
Length of Day
15h 21m
Waning Crescent, 0% of the Moon is Illuminated
Jun 8
Waning Crescent
Jun 8
New
Jun 16
First Quarter
Jun 23
Full
Jun 30
Last Quarter

Hourly Weather History & Observations

Time (CEST) Temp. Dew Point Humidity Pressure Visibility Wind Dir Wind Speed Gust Speed Precip Events Conditions
12:00 AM 66.2 °F 57.2 °F 73% 30.04 in - Variable 1.2 mph - N/A   Clear
12:30 AM 66.2 °F 59.0 °F 78% 30.04 in - Calm Calm - N/A   Clear
1:00 AM 66.2 °F 59.0 °F 78% 30.04 in - NE 3.5 mph - N/A   Clear
1:30 AM 64.4 °F 57.2 °F 77% 30.04 in - NNE 4.6 mph - N/A   Clear
2:00 AM 65 °F 55 °F 63% 30.03 in 12 mi North 4.6 mph - -   Clear
2:00 AM 64.4 °F 55.4 °F 73% 30.01 in - North 4.6 mph - N/A   Clear
2:30 AM 66.2 °F 55.4 °F 68% 30.01 in - North 3.5 mph - N/A   Clear
3:00 AM 64.4 °F 55.4 °F 73% 30.01 in - NNE 5.8 mph - N/A   Clear
3:30 AM 64.4 °F 55.4 °F 73% 30.01 in - North 3.5 mph - N/A   Clear
4:00 AM 64.4 °F 53.6 °F 68% 30.01 in - NNE 4.6 mph - N/A   Clear
4:30 AM 64.4 °F 53.6 °F 68% 30.01 in - NNE 5.8 mph - N/A   Clear
5:00 AM 62.6 °F 53.6 °F 72% 30.01 in - Calm Calm - N/A   Clear
5:30 AM 62.6 °F 53.6 °F 72% 30.01 in - Calm Calm - N/A   Clear
6:00 AM 62.6 °F 53.6 °F 72% 29.98 in - NNE 6.9 mph - N/A   Clear
6:30 AM 66.2 °F 55.4 °F 68% 29.98 in - North 4.6 mph - N/A   Clear
7:00 AM 66.2 °F 53.6 °F 64% 29.98 in - Variable 2.3 mph - N/A   Clear
7:30 AM 68.0 °F 55.4 °F 64% 29.98 in - ENE 4.6 mph - N/A   Clear
8:00 AM 67 °F 58 °F 67% 30.01 in 16 mi NE 3.5 mph - -   Scattered Clouds
8:00 AM 68.0 °F 59.0 °F 73% 30.01 in - NE 3.5 mph - N/A   Clear
8:30 AM 66.2 °F 59.0 °F 78% 30.01 in 6.2 mi Variable 2.3 mph - N/A   Mostly Cloudy
9:00 AM 68.0 °F 59.0 °F 73% 30.01 in 6.2 mi Variable 1.2 mph - N/A   Mostly Cloudy
9:30 AM 68.0 °F 59.0 °F 73% 30.01 in 6.2 mi ENE 5.8 mph - N/A   Mostly Cloudy
10:00 AM 68.0 °F 60.8 °F 78% 30.04 in 6.2 mi SE 5.8 mph - N/A   Mostly Cloudy
10:30 AM 69.8 °F 60.8 °F 73% 30.01 in 6.2 mi ENE 6.9 mph - N/A   Mostly Cloudy
11:00 AM 68.0 °F 62.6 °F 83% 30.01 in 6.2 mi ENE 5.8 mph - N/A   Mostly Cloudy
11:30 AM 69.8 °F 62.6 °F 78% 30.01 in 6.2 mi ESE 8.1 mph - N/A   Mostly Cloudy
12:00 PM 68.0 °F 62.6 °F 83% 30.01 in 6.2 mi ESE 8.1 mph - N/A   Mostly Cloudy
12:30 PM 68.0 °F 62.6 °F 83% 30.01 in 6.2 mi SE 5.8 mph - N/A   Mostly Cloudy
1:00 PM 68.0 °F 62.6 °F 83% 30.01 in 6.2 mi SSE 5.8 mph - N/A   Mostly Cloudy
1:30 PM 68.0 °F 62.6 °F 83% 30.01 in 6.2 mi SSE 4.6 mph - N/A   Mostly Cloudy
2:00 PM 68 °F 62 °F 74% 30.02 in 9 mi SE 3.5 mph - -   Scattered Clouds
2:00 PM 68.0 °F 62.6 °F 83% 30.01 in 6.2 mi SSE 4.6 mph - N/A   Mostly Cloudy
2:30 PM 68.0 °F 62.6 °F 83% 29.98 in 6.2 mi ENE 5.8 mph - N/A   Mostly Cloudy
3:00 PM 68.0 °F 62.6 °F 83% 29.98 in 6.2 mi SE 3.5 mph - N/A   Mostly Cloudy
3:30 PM 68.0 °F 60.8 °F 78% 29.98 in 6.2 mi Variable 2.3 mph - N/A   Mostly Cloudy
4:00 PM 69.8 °F 60.8 °F 73% 29.98 in 6.2 mi Variable 1.2 mph - N/A   Mostly Cloudy
4:30 PM 69.8 °F 60.8 °F 73% 29.95 in 6.2 mi NE 6.9 mph - N/A   Mostly Cloudy
5:00 PM 68.0 °F 60.8 °F 78% 29.95 in 6.2 mi ESE 4.6 mph - N/A   Mostly Cloudy
5:30 PM 68.0 °F 62.6 °F 83% 29.95 in 6.2 mi South 6.9 mph - N/A   Mostly Cloudy
6:00 PM 68.0 °F 62.6 °F 83% 29.95 in 6.2 mi South 9.2 mph - N/A   Mostly Cloudy
6:30 PM 68.0 °F 60.8 °F 78% 29.95 in 6.2 mi SW 9.2 mph - N/A   Mostly Cloudy
7:00 PM 68.0 °F 60.8 °F 78% 29.95 in 6.2 mi SSW 6.9 mph - N/A   Mostly Cloudy
7:30 PM 66.2 °F 60.8 °F 83% 29.95 in 6.2 mi SSW 8.1 mph - N/A   Mostly Cloudy
8:00 PM 67 °F 60 °F 73% 29.96 in 25 mi SW 4.6 mph - -   Mostly Cloudy
8:00 PM 68.0 °F 60.8 °F 78% 29.95 in 6.2 mi SW 4.6 mph - N/A   Mostly Cloudy
8:30 PM 68.0 °F 59.0 °F 73% 29.95 in 6.2 mi SW 6.9 mph - N/A   Mostly Cloudy
9:00 PM 66.2 °F 59.0 °F 78% 29.95 in 6.2 mi SW 5.8 mph - N/A   Mostly Cloudy
9:30 PM 66.2 °F 59.0 °F 78% 29.92 in 6.2 mi Variable 2.3 mph - N/A   Mostly Cloudy
10:00 PM 66.2 °F 59.0 °F 78% 29.92 in 6.2 mi SW 3.5 mph - N/A   Mostly Cloudy
10:30 PM 66.2 °F 60.8 °F 83% 29.92 in 6.2 mi SSW 4.6 mph - N/A   Mostly Cloudy
11:00 PM 66.2 °F 59.0 °F 78% 29.92 in 6.2 mi SW 3.5 mph - N/A   Mostly Cloudy
11:30 PM 66.2 °F 59.0 °F 78% 29.92 in 6.2 mi West 3.5 mph - N/A   Mostly Cloudy